Regional Weather Roundup
Issued by NWS Albany, NY

Home | Current Version | Previous Version | Text Only | Print | Product List | Glossary On
Versions: 1 2 3 4 5 6 7 8 9 10 11 12 13 14 15 16 17 18 19 20 21 22 23 24 25 26 27 28 29 30 31 32 33 34 35 36 37 38 39 40 41 42 43 44 45 46 47 48 49 50
000
ASUS41 KALY 290210
RWRALY

NEW YORK STATE HOURLY WEATHER ROUNDUP
NATIONAL WEATHER SERVICE ALBANY NY
1000 PM EDT FRI AUG 28 2015

NOTE: "FAIR" INDICATES FEW OR NO CLOUDS BELOW 12,000 FEET WITH NO
SIGNIFICANT WEATHER AND/OR NO OBSTRUCTIONS TO VISIBILITY.

NYZ032-033-038>043-046>054-057>066-NYZ062>081-290300-
EAST


CITY           SKY/WX    TMP DP  RH WIND       PRES   REMARKS
ALBANY         PTCLDY    64  54  69 CALM      30.19R
GLENS FALLS    CLEAR     63  56  78 SW6       30.17R
POUGHKEEPSIE   PTCLDY    65  57  75 CALM      30.18R
MONTGOMERY     CLEAR     60  56  86 CALM      30.20R
WHITE PLAINS   CLEAR     64  54  69 NW6       30.20R
ISLIP          PTCLDY    70  57  63 CALM      30.18R
NEW YORK CITY  MOCLDY    76  54  46 N7        30.18R
CENTRAL PARK   CLEAR     75  51  43 VRB3      30.22R
$$

NYZ005>009-017-018-044>046-055-056-290300-
CENTRAL


CITY           SKY/WX    TMP DP  RH WIND       PRES   REMARKS
FULTON         CLEAR     56  54  93 CALM      30.20R
SYRACUSE       PTCLDY    61  57  87 SE3       30.19S
ROME           CLEAR     58  56  93 CALM      30.21S
ELMIRA         CLEAR     56  54  93 CALM      30.21R
BINGHAMTON     CLEAR     62  54  74 CALM      30.23R
MONTICELLO     CLEAR     57  52  82 N5        30.25R
$$

NYZ026>034-041>043-290300-
NORTH


CITY           SKY/WX    TMP DP  RH WIND       PRES   REMARKS
WATERTOWN      CLEAR     59  54  83 S5        30.18S
FORT DRUM      NOT AVBL
MASSENA        CLEAR     61  56  83 SW3       30.18R
SARANAC LAKE   CLEAR     51  49  92 CALM      30.20R
PLATTSBURGH    CLEAR     61  58  90 VRB3      30.16R
$$

NYZ001>004-010>016-019>021-290300-
WEST


CITY           SKY/WX    TMP DP  RH WIND       PRES   REMARKS
NIAGARA FALLS  CLOUDY    62  56  80 S5        30.18R
BUFFALO        MOCLDY    64  55  72 S6        30.19R
DUNKIRK        PTCLDY    59  56  89 CALM      30.19R
JAMESTOWN      MOCLDY    59  52  77 CALM      30.22R
WELLSVILLE     PTCLDY    60  54  80 E3        30.25R
ROCHESTER      PTCLDY    64  56  75 SE3       30.20R
PENN YAN       CLEAR     55  53  93 CALM      30.20S
$$

             KEY
       WCI = WIND CHILL INDEX
       VSB = VISIBILITY
       HX  = HEAT INDEX
$$


USA.gov is the U.S. government's official web portal to all federal, state and local government web resources and services.